Time,TemperatureF,DewpointF,PressureIn,WindDirection,WindDirectionDegrees,WindSpeedMPH,WindSpeedGustMPH,Humidity,HourlyPrecipIn,Conditions,Clouds,dailyrainin,SolarRadiationWatts/m^2,SoftwareType,DateUTC
2013-09-13 00:00:00,55.7,53.7,30.18,SW,225,0.0,1.0,93,0.00,,,0.00,0,LWC V2.00 B727,2013-09-13 06:00:00,
2013-09-13 00:10:00,55.3,53.0,30.17,North,0,0.0,0.0,92,0.00,,,0.00,0,LWC V2.00 B727,2013-09-13 06:10:00,
2013-09-13 00:20:00,55.3,53.0,30.17,North,0,0.0,0.0,92,0.00,,,0.00,0,LWC V2.00 B727,2013-09-13 06:20:00,
2013-09-13 00:30:00,55.3,53.0,30.17,North,0,0.0,0.0,92,0.00,,,0.00,0,LWC V2.00 B727,2013-09-13 06:30:00,
2013-09-13 00:40:00,55.0,53.0,30.17,North,0,0.0,0.0,93,0.00,,,0.00,0,LWC V2.00 B727,2013-09-13 06:40:00,
2013-09-13 00:50:00,55.0,53.0,30.17,North,0,0.0,0.0,93,0.00,,,0.00,0,LWC V2.00 B727,2013-09-13 06:50:00,
2013-09-13 01:00:00,55.0,53.0,30.17,North,0,0.0,0.0,93,0.00,,,0.00,0,LWC V2.00 B727,2013-09-13 07:00:00,
2013-09-13 01:10:00,54.9,52.9,30.16,North,0,0.0,0.0,93,0.00,,,0.00,0,LWC V2.00 B727,2013-09-13 07:10:00,
2013-09-13 01:20:00,54.9,52.9,30.16,North,0,0.0,0.0,93,0.00,,,0.00,0,LWC V2.00 B727,2013-09-13 07:20:00,
2013-09-13 01:30:00,54.9,52.9,30.16,North,0,0.0,0.0,93,0.00,,,0.00,0,LWC V2.00 B727,2013-09-13 07:30:00,
2013-09-13 01:40:00,54.8,52.8,30.15,North,0,0.0,0.0,93,0.00,,,0.00,0,LWC V2.00 B727,2013-09-13 07:40:00,
2013-09-13 01:50:00,54.8,52.8,30.15,North,0,0.0,0.0,93,0.00,,,0.00,0,LWC V2.00 B727,2013-09-13 07:50:00,
2013-09-13 02:00:00,54.8,52.8,30.15,North,0,0.0,0.0,93,0.00,,,0.00,0,LWC V2.00 B727,2013-09-13 08:00:00,
2013-09-13 02:10:00,54.8,52.8,30.15,SW,225,0.0,1.0,93,0.00,,,0.00,0,LWC V2.00 B727,2013-09-13 08:10:00,
2013-09-13 02:20:00,54.8,52.8,30.15,SW,225,0.0,1.0,93,0.00,,,0.00,0,LWC V2.00 B727,2013-09-13 08:20:00,
2013-09-13 02:30:00,54.8,52.8,30.15,SW,225,0.0,1.0,93,0.00,,,0.00,0,LWC V2.00 B727,2013-09-13 08:30:00,
2013-09-13 02:40:00,54.6,52.6,30.15,North,0,0.0,0.0,93,0.14,,,0.00,0,LWC V2.00 B727,2013-09-13 08:40:00,
2013-09-13 02:50:00,54.6,52.6,30.15,North,0,0.0,0.0,93,0.14,,,0.00,0,LWC V2.00 B727,2013-09-13 08:50:00,
2013-09-13 03:00:00,54.6,52.6,30.15,North,0,0.0,0.0,93,0.14,,,0.00,0,LWC V2.00 B727,2013-09-13 09:00:00,
2013-09-13 03:10:00,54.6,52.6,30.15,SW,225,0.0,5.0,93,0.41,,,0.00,0,LWC V2.00 B727,2013-09-13 09:10:00,
2013-09-13 03:20:00,54.6,52.6,30.15,SW,225,0.0,5.0,93,0.41,,,0.00,0,LWC V2.00 B727,2013-09-13 09:20:00,
2013-09-13 03:30:00,54.6,52.6,30.15,SW,225,0.0,5.0,93,0.41,,,0.00,0,LWC V2.00 B727,2013-09-13 09:30:00,
2013-09-13 03:40:00,54.2,52.2,30.15,SW,225,0.0,5.0,93,1.59,,,0.00,0,LWC V2.00 B727,2013-09-13 09:40:00,
2013-09-13 03:50:00,54.2,52.2,30.15,SW,225,0.0,5.0,93,1.59,,,0.00,0,LWC V2.00 B727,2013-09-13 09:50:00,
2013-09-13 04:00:00,54.2,52.2,30.15,SW,225,0.0,5.0,93,1.59,,,0.00,0,LWC V2.00 B727,2013-09-13 10:00:00,
2013-09-13 04:10:00,53.9,51.9,30.15,West,270,0.0,1.0,93,0.40,,,0.00,0,LWC V2.00 B727,2013-09-13 10:10:00,
2013-09-13 04:20:00,53.9,51.9,30.15,West,270,0.0,1.0,93,0.40,,,0.00,0,LWC V2.00 B727,2013-09-13 10:20:00,
2013-09-13 04:30:00,53.9,51.9,30.15,West,270,0.0,1.0,93,0.40,,,0.00,0,LWC V2.00 B727,2013-09-13 10:30:00,
2013-09-13 04:40:00,53.7,51.7,30.16,West,270,0.0,2.0,93,0.24,,,0.00,0,LWC V2.00 B727,2013-09-13 10:40:00,
2013-09-13 04:50:00,53.7,51.7,30.16,West,270,0.0,2.0,93,0.24,,,0.00,0,LWC V2.00 B727,2013-09-13 10:50:00,
2013-09-13 05:00:00,53.7,51.7,30.16,West,270,0.0,2.0,93,0.24,,,0.00,0,LWC V2.00 B727,2013-09-13 11:00:00,
2013-09-13 05:10:00,53.6,51.6,30.16,West,270,0.0,1.0,93,0.22,,,0.00,0,LWC V2.00 B727,2013-09-13 11:10:00,
2013-09-13 05:20:00,53.6,51.6,30.16,West,270,0.0,1.0,93,0.22,,,0.00,0,LWC V2.00 B727,2013-09-13 11:20:00,
2013-09-13 05:30:00,53.6,51.6,30.16,West,270,0.0,1.0,93,0.22,,,0.00,0,LWC V2.00 B727,2013-09-13 11:30:00,
2013-09-13 05:40:00,53.4,51.4,30.16,West,270,1.0,4.0,93,0.12,,,0.00,0,LWC V2.00 B727,2013-09-13 11:40:00,
2013-09-13 05:50:00,53.4,51.4,30.16,West,270,1.0,4.0,93,0.12,,,0.00,0,LWC V2.00 B727,2013-09-13 11:50:00,
2013-09-13 06:00:00,53.4,51.4,30.16,West,270,1.0,4.0,93,0.12,,,0.00,0,LWC V2.00 B727,2013-09-13 12:00:00,
2013-09-13 06:10:00,50.0,50.0,30.15,WNW,292,0.0,2.0,50,0.00,,,0.00,0,LWC V2.00 B727,2013-09-13 12:10:00,
2013-09-13 06:20:00,50.0,50.0,30.15,WNW,292,0.0,2.0,50,0.00,,,0.00,0,LWC V2.00 B727,2013-09-13 12:20:00,
2013-09-13 06:30:00,50.0,50.0,30.15,WNW,292,0.0,2.0,50,0.00,,,0.00,0,LWC V2.00 B727,2013-09-13 12:30:00,
2013-09-13 06:40:00,50.0,50.0,30.14,North,0,0.0,0.0,50,0.00,,,0.00,0,LWC V2.00 B727,2013-09-13 12:40:00,
2013-09-13 06:50:00,50.0,50.0,30.14,North,0,0.0,0.0,50,0.00,,,0.00,0,LWC V2.00 B727,2013-09-13 12:50:00,
2013-09-13 07:00:00,50.0,50.0,30.14,North,0,0.0,0.0,50,0.00,,,0.00,0,LWC V2.00 B727,2013-09-13 13:00:00,
2013-09-13 07:10:00,52.7,50.7,30.15,North,0,0.0,0.0,93,0.00,,,0.00,2,LWC V2.00 B727,2013-09-13 13:10:00,
2013-09-13 07:20:00,52.7,50.7,30.15,North,0,0.0,0.0,93,0.00,,,0.00,2,LWC V2.00 B727,2013-09-13 13:20:00,
2013-09-13 07:30:00,52.7,50.7,30.15,North,0,0.0,0.0,93,0.00,,,0.00,2,LWC V2.00 B727,2013-09-13 13:30:00,
2013-09-13 07:40:00,53.1,51.1,30.15,SW,225,0.0,2.0,93,0.12,,,0.00,13,LWC V2.00 B727,2013-09-13 13:40:00,
2013-09-13 07:50:00,53.1,51.1,30.15,SW,225,0.0,2.0,93,0.12,,,0.00,13,LWC V2.00 B727,2013-09-13 13:50:00,
2013-09-13 08:00:00,53.1,51.1,30.15,SW,225,0.0,2.0,93,0.12,,,0.00,13,LWC V2.00 B727,2013-09-13 14:00:00,
2013-09-13 08:10:00,53.8,52.1,30.14,SW,226,0.0,0.0,94,0.04,,,0.00,46,LWC V2.00 B727,2013-09-13 14:10:00,
2013-09-13 08:20:00,53.8,52.1,30.14,SW,226,0.0,0.0,94,0.04,,,0.00,46,LWC V2.00 B727,2013-09-13 14:20:00,
2013-09-13 08:36:00,53.8,51.8,30.15,SW,226,0.0,0.0,93,0.00,,,0.53,42,LWC V2.00 B727,2013-09-13 14:36:00,
2013-09-13 08:41:00,53.8,51.8,30.15,SW,226,0.0,1.0,93,0.00,,,0.53,40,LWC V2.00 B727,2013-09-13 14:41:00,
2013-09-13 08:46:00,53.7,51.7,30.15,SW,226,0.0,0.0,93,0.00,,,0.53,47,LWC V2.00 B727,2013-09-13 14:46:00,
2013-09-13 08:51:00,53.7,51.7,30.15,SW,226,0.0,0.0,93,0.00,,,0.54,62,LWC V2.00 B727,2013-09-13 14:51:00,
2013-09-13 08:56:00,53.6,51.6,30.15,SW,226,0.0,1.0,93,0.07,,,0.55,49,LWC V2.00 B727,2013-09-13 14:56:00,
2013-09-13 09:01:00,53.6,51.6,30.15,WSW,253,3.0,3.0,93,0.07,,,0.55,44,LWC V2.00 B727,2013-09-13 15:01:00,
2013-09-13 09:06:00,53.6,51.9,30.15,WNW,296,2.0,8.0,94,0.07,,,0.56,60,LWC V2.00 B727,2013-09-13 15:06:00,
2013-09-13 09:11:00,53.4,51.4,30.16,West,270,0.0,3.0,93,0.07,,,0.56,49,LWC V2.00 B727,2013-09-13 15:11:00,
2013-09-13 09:16:00,53.2,51.2,30.16,WNW,298,4.0,5.0,93,0.05,,,0.56,42,LWC V2.00 B727,2013-09-13 15:16:00,
2013-09-13 09:21:00,53.0,51.0,30.16,WSW,254,4.0,4.0,93,0.04,,,0.57,30,LWC V2.00 B727,2013-09-13 15:21:00,
2013-09-13 09:26:00,52.9,50.9,30.16,WNW,295,2.0,4.0,93,0.11,,,0.58,74,LWC V2.00 B727,2013-09-13 15:26:00,
2013-09-13 09:31:00,52.8,50.8,30.17,WSW,246,1.0,2.0,93,0.10,,,0.58,70,LWC V2.00 B727,2013-09-13 15:31:00,
2013-09-13 09:36:00,52.8,50.8,30.17,WSW,248,1.0,4.0,93,0.08,,,0.59,67,LWC V2.00 B727,2013-09-13 15:36:00,
2013-09-13 09:41:00,52.7,50.7,30.17,WSW,248,4.0,4.0,93,0.09,,,0.60,63,LWC V2.00 B727,2013-09-13 15:41:00,
2013-09-13 09:46:00,52.7,50.7,30.17,WSW,248,1.0,4.0,93,0.14,,,0.61,62,LWC V2.00 B727,2013-09-13 15:46:00,
2013-09-13 09:51:00,52.6,50.6,30.17,WNW,292,0.0,1.0,93,0.14,,,0.62,53,LWC V2.00 B727,2013-09-13 15:51:00,
2013-09-13 09:56:00,52.6,50.6,30.18,WNW,297,1.0,2.0,93,0.09,,,0.63,47,LWC V2.00 B727,2013-09-13 15:56:00,
2013-09-13 10:01:00,52.6,50.6,30.18,WNW,296,0.0,1.0,93,0.09,,,0.64,39,LWC V2.00 B727,2013-09-13 16:01:00,
2013-09-13 10:06:00,52.7,51.0,30.19,WNW,296,0.0,0.0,94,0.09,,,0.64,44,LWC V2.00 B727,2013-09-13 16:06:00,
2013-09-13 10:11:00,52.7,51.0,30.19,WNW,298,2.0,5.0,94,0.09,,,0.65,65,LWC V2.00 B727,2013-09-13 16:11:00,
2013-09-13 10:16:00,52.6,50.6,30.19,WNW,290,4.0,6.0,93,0.09,,,0.66,90,LWC V2.00 B727,2013-09-13 16:16:00,
2013-09-13 10:21:00,52.5,50.5,30.19,West,274,7.0,7.0,93,0.14,,,0.67,74,LWC V2.00 B727,2013-09-13 16:21:00,
2013-09-13 10:26:00,52.4,50.4,30.19,WNW,300,3.0,10.0,93,0.12,,,0.68,84,LWC V2.00 B727,2013-09-13 16:26:00,
2013-09-13 10:31:00,52.3,50.3,30.19,WNW,292,1.0,5.0,93,0.09,,,0.68,86,LWC V2.00 B727,2013-09-13 16:31:00,
2013-09-13 10:36:00,52.2,50.2,30.20,WSW,251,1.0,3.0,93,0.05,,,0.68,113,LWC V2.00 B727,2013-09-13 16:36:00,
2013-09-13 10:41:00,52.1,50.1,30.20,WSW,243,0.0,2.0,93,0.04,,,0.69,142,LWC V2.00 B727,2013-09-13 16:41:00,
2013-09-13 10:46:00,52.2,50.2,30.20,SW,233,0.0,4.0,93,0.04,,,0.69,116,LWC V2.00 B727,2013-09-13 16:46:00,
2013-09-13 10:51:00,52.2,50.2,30.20,NW,304,1.0,6.0,93,0.04,,,0.69,88,LWC V2.00 B727,2013-09-13 16:51:00,
2013-09-13 10:56:00,52.1,50.1,30.20,WSW,250,2.0,2.0,93,0.04,,,0.70,62,LWC V2.00 B727,2013-09-13 16:56:00,
2013-09-13 11:01:00,52.1,50.1,30.20,WSW,250,2.0,4.0,93,0.04,,,0.70,74,LWC V2.00 B727,2013-09-13 17:01:00,
2013-09-13 11:06:00,52.1,50.1,30.21,WSW,251,3.0,3.0,93,0.07,,,0.71,77,LWC V2.00 B727,2013-09-13 17:06:00,
2013-09-13 11:11:00,52.0,50.0,30.20,WNW,294,1.0,3.0,93,0.07,,,0.71,77,LWC V2.00 B727,2013-09-13 17:11:00,
2013-09-13 11:16:00,52.0,50.0,30.20,WNW,296,2.0,4.0,93,0.09,,,0.72,74,LWC V2.00 B727,2013-09-13 17:16:00,
2013-09-13 11:21:00,51.9,49.9,30.20,WNW,296,0.0,0.0,93,0.07,,,0.73,58,LWC V2.00 B727,2013-09-13 17:21:00,
2013-09-13 11:26:00,52.0,50.0,30.20,WNW,296,0.0,1.0,93,0.07,,,0.73,62,LWC V2.00 B727,2013-09-13 17:26:00,
2013-09-13 11:31:00,52.0,50.3,30.20,WNW,296,0.0,0.0,94,0.09,,,0.74,81,LWC V2.00 B727,2013-09-13 17:31:00,
2013-09-13 11:36:00,52.1,50.4,30.20,WNW,294,1.0,2.0,94,0.10,,,0.75,86,LWC V2.00 B727,2013-09-13 17:36:00,
2013-09-13 11:41:00,52.3,50.6,30.20,SSW,208,4.0,7.0,94,0.13,,,0.76,130,LWC V2.00 B727,2013-09-13 17:41:00,
2013-09-13 11:46:00,52.5,50.5,30.20,SSW,210,2.0,5.0,93,0.10,,,0.77,132,LWC V2.00 B727,2013-09-13 17:46:00,
2013-09-13 11:51:00,52.4,50.4,30.20,SSW,211,3.0,10.0,93,0.12,,,0.78,102,LWC V2.00 B727,2013-09-13 17:51:00,
2013-09-13 11:56:00,52.4,50.4,30.20,SW,214,3.0,3.0,93,0.14,,,0.79,169,LWC V2.00 B727,2013-09-13 17:56:00,
2013-09-13 12:01:00,52.6,50.6,30.21,West,276,3.0,5.0,93,0.08,,,0.80,146,LWC V2.00 B727,2013-09-13 18:01:00,
2013-09-13 12:06:00,52.6,50.6,30.21,SSW,203,3.0,5.0,93,0.08,,,0.80,186,LWC V2.00 B727,2013-09-13 18:06:00,
2013-09-13 12:11:00,52.7,51.0,30.21,SW,214,4.0,7.0,94,0.05,,,0.80,155,LWC V2.00 B727,2013-09-13 18:11:00,
2013-09-13 12:16:00,52.7,51.0,30.21,SSW,206,7.0,7.0,94,0.05,,,0.81,135,LWC V2.00 B727,2013-09-13 18:16:00,
2013-09-13 12:21:00,52.7,50.7,30.21,SW,214,2.0,5.0,93,0.05,,,0.81,151,LWC V2.00 B727,2013-09-13 18:21:00,
2013-09-13 12:26:00,52.8,51.1,30.20,SW,214,2.0,2.0,94,0.05,,,0.82,153,LWC V2.00 B727,2013-09-13 18:26:00,
2013-09-13 12:31:00,52.8,50.8,30.20,SSW,202,0.0,2.0,93,0.05,,,0.82,181,LWC V2.00 B727,2013-09-13 18:31:00,
2013-09-13 12:36:00,52.9,51.2,30.20,SSW,194,0.0,4.0,94,0.06,,,0.83,149,LWC V2.00 B727,2013-09-13 18:36:00,
2013-09-13 12:41:00,53.0,51.0,30.20,SSW,192,0.0,3.0,93,0.06,,,0.83,155,LWC V2.00 B727,2013-09-13 18:41:00,
2013-09-13 12:46:00,53.0,51.0,30.20,SSE,160,2.0,5.0,93,0.04,,,0.83,158,LWC V2.00 B727,2013-09-13 18:46:00,
2013-09-13 12:51:00,53.0,51.0,30.20,SE,135,5.0,6.0,93,0.04,,,0.84,174,LWC V2.00 B727,2013-09-13 18:51:00,
2013-09-13 12:56:00,52.8,50.8,30.20,SSE,162,3.0,4.0,93,0.04,,,0.84,156,LWC V2.00 B727,2013-09-13 18:56:00,
2013-09-13 13:01:00,52.7,50.7,30.20,SSE,155,4.0,5.0,93,0.04,,,0.84,160,LWC V2.00 B727,2013-09-13 19:01:00,
2013-09-13 13:06:00,52.6,50.6,30.20,SSE,155,3.0,6.0,93,0.00,,,0.84,155,LWC V2.00 B727,2013-09-13 19:06:00,
2013-09-13 13:11:00,52.5,50.5,30.20,SSE,155,4.0,5.0,93,0.00,,,0.85,149,LWC V2.00 B727,2013-09-13 19:11:00,
2013-09-13 13:16:00,52.4,50.4,30.19,SSE,155,4.0,4.0,93,0.00,,,0.85,127,LWC V2.00 B727,2013-09-13 19:16:00,
2013-09-13 13:21:00,52.3,50.0,30.20,SSE,155,0.0,3.0,92,0.00,,,0.85,130,LWC V2.00 B727,2013-09-13 19:21:00,
2013-09-13 13:26:00,52.4,50.1,30.19,SSE,155,0.0,3.0,92,0.00,,,0.85,127,LWC V2.00 B727,2013-09-13 19:26:00,
2013-09-13 13:31:00,52.4,50.1,30.19,SSE,155,2.0,4.0,92,0.00,,,0.85,128,LWC V2.00 B727,2013-09-13 19:31:00,
2013-09-13 13:36:00,52.4,50.1,30.19,SSE,155,3.0,3.0,92,0.00,,,0.86,151,LWC V2.00 B727,2013-09-13 19:36:00,
2013-09-13 13:41:00,52.4,50.1,30.19,SSE,155,3.0,3.0,92,0.00,,,0.86,137,LWC V2.00 B727,2013-09-13 19:41:00,
2013-09-13 13:46:00,52.5,50.2,30.18,SSE,155,1.0,3.0,92,0.00,,,0.86,134,LWC V2.00 B727,2013-09-13 19:46:00,
2013-09-13 13:51:00,52.7,50.4,30.18,ESE,111,3.0,4.0,92,0.00,,,0.86,139,LWC V2.00 B727,2013-09-13 19:51:00,
2013-09-13 13:56:00,52.6,50.0,30.17,ESE,111,3.0,5.0,91,0.00,,,0.86,156,LWC V2.00 B727,2013-09-13 19:56:00,
2013-09-13 14:01:00,52.6,50.0,30.17,East,88,3.0,6.0,91,0.00,,,0.87,169,LWC V2.00 B727,2013-09-13 20:01:00,
2013-09-13 14:06:00,52.7,50.1,30.16,East,91,3.0,7.0,91,0.00,,,0.87,195,LWC V2.00 B727,2013-09-13 20:06:00,
2013-09-13 14:11:00,52.7,49.8,30.16,East,84,3.0,7.0,90,0.00,,,0.87,193,LWC V2.00 B727,2013-09-13 20:11:00,
2013-09-13 14:16:00,52.7,49.8,30.16,East,86,3.0,6.0,90,0.00,,,0.87,193,LWC V2.00 B727,2013-09-13 20:16:00,
2013-09-13 14:21:00,52.8,49.9,30.16,ENE,78,0.0,2.0,90,0.00,,,0.87,207,LWC V2.00 B727,2013-09-13 20:21:00,
2013-09-13 14:26:00,53.1,50.2,30.16,ENE,78,1.0,2.0,90,0.00,,,0.87,172,LWC V2.00 B727,2013-09-13 20:26:00,
2013-09-13 14:31:00,53.3,50.4,30.16,ENE,74,2.0,3.0,90,0.00,,,0.87,148,LWC V2.00 B727,2013-09-13 20:31:00,
2013-09-13 14:36:00,53.3,50.1,30.15,ENE,57,0.0,8.0,89,0.00,,,0.87,134,LWC V2.00 B727,2013-09-13 20:36:00,
2013-09-13 14:41:00,53.4,50.5,30.16,ENE,58,1.0,2.0,90,0.00,,,0.87,127,LWC V2.00 B727,2013-09-13 20:41:00,
2013-09-13 14:46:00,53.6,50.7,30.15,ENE,57,0.0,4.0,90,0.00,,,0.87,200,LWC V2.00 B727,2013-09-13 20:46:00,
2013-09-13 14:51:00,53.9,51.0,30.15,ENE,57,2.0,2.0,90,0.00,,,0.88,225,LWC V2.00 B727,2013-09-13 20:51:00,
2013-09-13 14:56:00,54.2,51.6,30.15,ENE,57,0.0,1.0,91,0.00,,,0.88,227,LWC V2.00 B727,2013-09-13 20:56:00,
2013-09-13 15:01:00,54.4,51.5,30.15,NE,56,2.0,3.0,90,0.00,,,0.88,236,LWC V2.00 B727,2013-09-13 21:01:00,
2013-09-13 15:06:00,54.5,51.9,30.14,NE,56,0.0,2.0,91,0.00,,,0.88,301,LWC V2.00 B727,2013-09-13 21:06:00,
2013-09-13 15:11:00,54.8,52.2,30.14,North,355,4.0,5.0,91,0.00,,,0.88,258,LWC V2.00 B727,2013-09-13 21:11:00,
2013-09-13 15:16:00,55.0,52.4,30.14,North,355,0.0,2.0,91,0.00,,,0.88,239,LWC V2.00 B727,2013-09-13 21:16:00,
2013-09-13 15:21:00,55.1,52.2,30.14,North,355,1.0,3.0,90,0.00,,,0.88,221,LWC V2.00 B727,2013-09-13 21:21:00,
2013-09-13 15:26:00,55.0,51.8,30.14,North,355,0.0,0.0,89,0.00,,,0.88,144,LWC V2.00 B727,2013-09-13 21:26:00,
2013-09-13 15:31:00,54.9,51.4,30.13,North,355,0.0,1.0,88,0.00,,,0.88,230,LWC V2.00 B727,2013-09-13 21:31:00,
2013-09-13 15:36:00,55.2,52.0,30.14,North,355,0.0,0.0,89,0.00,,,0.88,272,LWC V2.00 B727,2013-09-13 21:36:00,
2013-09-13 15:41:00,55.7,52.8,30.14,North,355,0.0,1.0,90,0.00,,,0.88,260,LWC V2.00 B727,2013-09-13 21:41:00,
2013-09-13 15:46:00,55.6,51.8,30.13,North,355,0.0,1.0,87,0.00,,,0.88,197,LWC V2.00 B727,2013-09-13 21:46:00,
2013-09-13 15:51:00,55.6,51.8,30.13,North,355,1.0,2.0,87,0.00,,,0.88,188,LWC V2.00 B727,2013-09-13 21:51:00,
2013-09-13 15:56:00,55.6,51.2,30.13,North,355,0.0,0.0,85,0.00,,,0.88,192,LWC V2.00 B727,2013-09-13 21:56:00,
2013-09-13 16:01:00,55.7,51.6,30.13,North,355,0.0,0.0,86,0.00,,,0.88,200,LWC V2.00 B727,2013-09-13 22:01:00,
2013-09-13 16:06:00,55.9,51.8,30.13,North,355,0.0,0.0,86,0.00,,,0.88,290,LWC V2.00 B727,2013-09-13 22:06:00,
2013-09-13 16:11:00,56.0,51.9,30.13,North,355,0.0,0.0,86,0.00,,,0.88,246,LWC V2.00 B727,2013-09-13 22:11:00,
2013-09-13 16:16:00,56.2,52.1,30.13,North,355,0.0,1.0,86,0.00,,,0.88,232,LWC V2.00 B727,2013-09-13 22:16:00,
2013-09-13 16:21:00,56.3,51.8,30.13,North,355,1.0,4.0,85,0.00,,,0.88,234,LWC V2.00 B727,2013-09-13 22:21:00,
2013-09-13 16:26:00,56.3,51.5,30.13,North,355,0.0,2.0,84,0.00,,,0.88,211,LWC V2.00 B727,2013-09-13 22:26:00,
2013-09-13 16:31:00,56.4,52.3,30.13,NNW,343,0.0,3.0,86,0.00,,,0.88,216,LWC V2.00 B727,2013-09-13 22:31:00,
2013-09-13 16:36:00,56.7,52.9,30.13,NNW,343,2.0,3.0,87,0.00,,,0.88,218,LWC V2.00 B727,2013-09-13 22:36:00,
2013-09-13 16:41:00,56.7,52.9,30.12,NNW,343,0.0,3.0,87,0.00,,,0.88,155,LWC V2.00 B727,2013-09-13 22:41:00,
2013-09-13 16:46:00,56.6,52.8,30.12,NNW,342,3.0,3.0,87,0.00,,,0.88,149,LWC V2.00 B727,2013-09-13 22:46:00,
2013-09-13 16:51:00,56.4,52.6,30.12,NNW,342,0.0,3.0,87,0.00,,,0.88,153,LWC V2.00 B727,2013-09-13 22:51:00,
2013-09-13 16:56:00,56.4,52.6,30.12,NNW,343,0.0,1.0,87,0.00,,,0.88,202,LWC V2.00 B727,2013-09-13 22:56:00,
2013-09-13 17:01:00,56.4,52.6,30.12,NNW,343,1.0,2.0,87,0.00,,,0.88,304,LWC V2.00 B727,2013-09-13 23:01:00,
2013-09-13 17:06:00,56.6,53.1,30.12,NNW,343,0.0,0.0,88,0.00,,,0.88,250,LWC V2.00 B727,2013-09-13 23:06:00,
2013-09-13 17:11:00,56.9,53.4,30.12,NNW,342,0.0,0.0,88,0.00,,,0.88,195,LWC V2.00 B727,2013-09-13 23:11:00,
2013-09-13 17:16:00,56.8,53.0,30.12,NNW,343,0.0,1.0,87,0.00,,,0.88,146,LWC V2.00 B727,2013-09-13 23:16:00,
2013-09-13 17:21:00,56.7,52.6,30.12,NNW,342,0.0,2.0,86,0.00,,,0.88,149,LWC V2.00 B727,2013-09-13 23:21:00,
2013-09-13 17:26:00,56.7,52.6,30.11,NNW,341,0.0,0.0,86,0.00,,,0.88,149,LWC V2.00 B727,2013-09-13 23:26:00,
2013-09-13 17:31:00,56.7,52.6,30.11,NNW,341,0.0,0.0,86,0.00,,,0.88,178,LWC V2.00 B727,2013-09-13 23:31:00,
2013-09-13 17:36:00,56.8,52.7,30.11,NNW,342,0.0,0.0,86,0.00,,,0.88,148,LWC V2.00 B727,2013-09-13 23:36:00,
2013-09-13 17:41:00,56.8,53.0,30.11,NNW,341,0.0,0.0,87,0.00,,,0.88,139,LWC V2.00 B727,2013-09-13 23:41:00,
2013-09-13 17:46:00,56.9,52.8,30.11,NNW,342,0.0,0.0,86,0.00,,,0.88,155,LWC V2.00 B727,2013-09-13 23:46:00,
2013-09-13 17:51:00,56.8,52.3,30.11,NNW,342,0.0,0.0,85,0.00,,,0.88,134,LWC V2.00 B727,2013-09-13 23:51:00,
2013-09-13 17:56:00,56.8,52.7,30.11,NNW,342,0.0,0.0,86,0.00,,,0.88,190,LWC V2.00 B727,2013-09-13 23:56:00,
2013-09-13 18:01:00,56.9,52.4,30.11,NNW,342,0.0,0.0,85,0.00,,,0.88,149,LWC V2.00 B727,2013-09-14 00:01:00,
2013-09-13 18:06:00,56.9,52.8,30.11,NNW,342,0.0,1.0,86,0.00,,,0.88,114,LWC V2.00 B727,2013-09-14 00:06:00,
2013-09-13 18:11:00,57.0,52.5,30.11,NNW,342,0.0,0.0,85,0.00,,,0.88,100,LWC V2.00 B727,2013-09-14 00:11:00,
2013-09-13 18:16:00,57.0,52.5,30.11,NNW,342,0.0,0.0,85,0.00,,,0.88,77,LWC V2.00 B727,2013-09-14 00:16:00,
2013-09-13 18:21:00,56.9,52.4,30.11,NNW,341,0.0,2.0,85,0.00,,,0.88,69,LWC V2.00 B727,2013-09-14 00:21:00,
2013-09-13 18:26:00,56.8,52.3,30.11,NNW,341,0.0,0.0,85,0.00,,,0.88,74,LWC V2.00 B727,2013-09-14 00:26:00,
2013-09-13 18:31:00,56.7,52.2,30.11,NNW,342,0.0,0.0,85,0.00,,,0.88,72,LWC V2.00 B727,2013-09-14 00:31:00,
2013-09-13 18:36:00,56.6,52.5,30.10,NNW,342,0.0,1.0,86,0.00,,,0.88,74,LWC V2.00 B727,2013-09-14 00:36:00,
2013-09-13 18:41:00,56.5,52.4,30.11,NNW,342,0.0,0.0,86,0.00,,,0.88,62,LWC V2.00 B727,2013-09-14 00:41:00,
2013-09-13 18:46:00,56.4,52.3,30.11,NNW,342,0.0,0.0,86,0.00,,,0.88,53,LWC V2.00 B727,2013-09-14 00:46:00,
2013-09-13 18:51:00,56.2,52.1,30.11,NNW,342,0.0,0.0,86,0.00,,,0.88,37,LWC V2.00 B727,2013-09-14 00:51:00,
2013-09-13 18:56:00,56.1,52.0,30.11,NNW,342,0.0,0.0,86,0.00,,,0.88,26,LWC V2.00 B727,2013-09-14 00:56:00,
2013-09-13 19:01:00,56.0,52.2,30.11,NNW,342,0.0,0.0,87,0.00,,,0.88,12,LWC V2.00 B727,2013-09-14 01:01:00,
2013-09-13 19:06:00,55.9,52.1,30.11,NNW,342,0.0,0.0,87,0.00,,,0.88,5,LWC V2.00 B727,2013-09-14 01:06:00,
2013-09-13 19:12:00,55.8,52.0,30.11,NNW,342,0.0,0.0,87,0.00,,,0.88,0,LWC V2.00 B727,2013-09-14 01:12:00,
2013-09-13 19:17:00,55.7,51.9,30.11,NNW,342,0.0,0.0,87,0.00,,,0.88,0,LWC V2.00 B727,2013-09-14 01:17:00,
2013-09-13 19:22:00,55.5,51.7,30.11,NNW,342,0.0,0.0,87,0.00,,,0.88,0,LWC V2.00 B727,2013-09-14 01:22:00,
2013-09-13 19:27:00,55.5,52.0,30.11,NNW,342,0.0,0.0,88,0.00,,,0.88,0,LWC V2.00 B727,2013-09-14 01:27:00,
2013-09-13 19:32:00,55.4,51.9,30.11,NNW,342,0.0,0.0,88,0.00,,,0.88,0,LWC V2.00 B727,2013-09-14 01:32:00,
2013-09-13 19:37:00,55.3,51.8,30.11,NNW,342,0.0,0.0,88,0.00,,,0.88,0,LWC V2.00 B727,2013-09-14 01:37:00,
2013-09-13 19:42:00,55.1,51.6,30.12,NNW,342,0.0,0.0,88,0.00,,,0.88,0,LWC V2.00 B727,2013-09-14 01:42:00,
2013-09-13 19:47:00,55.0,51.5,30.12,NNW,342,0.0,0.0,88,0.00,,,0.88,0,LWC V2.00 B727,2013-09-14 01:47:00,
2013-09-13 19:52:00,54.9,51.4,30.12,NNW,342,0.0,0.0,88,0.00,,,0.88,0,LWC V2.00 B727,2013-09-14 01:52:00,
2013-09-13 19:57:00,54.9,51.4,30.12,NNW,342,0.0,0.0,88,0.00,,,0.88,0,LWC V2.00 B727,2013-09-14 01:57:00,
2013-09-13 20:02:00,54.8,51.6,30.12,NNW,342,0.0,0.0,89,0.00,,,0.88,0,LWC V2.00 B727,2013-09-14 02:02:00,
2013-09-13 20:07:00,54.8,51.6,30.12,NNW,341,0.0,0.0,89,0.00,,,0.88,0,LWC V2.00 B727,2013-09-14 02:07:00,
2013-09-13 20:12:00,54.6,51.4,30.12,NNW,342,0.0,0.0,89,0.00,,,0.88,0,LWC V2.00 B727,2013-09-14 02:12:00,
2013-09-13 20:17:00,54.5,51.3,30.12,NNW,342,0.0,2.0,89,0.00,,,0.88,0,LWC V2.00 B727,2013-09-14 02:17:00,
2013-09-13 20:22:00,54.4,51.2,30.12,NNW,342,0.0,0.0,89,0.00,,,0.88,0,LWC V2.00 B727,2013-09-14 02:22:00,
2013-09-13 20:27:00,54.3,51.1,30.13,NNW,342,0.0,0.0,89,0.00,,,0.88,0,LWC V2.00 B727,2013-09-14 02:27:00,
2013-09-13 20:32:00,54.0,50.8,30.13,NNW,342,1.0,2.0,89,0.00,,,0.88,0,LWC V2.00 B727,2013-09-14 02:32:00,
2013-09-13 20:37:00,53.7,50.5,30.13,NNW,344,2.0,3.0,89,0.00,,,0.88,0,LWC V2.00 B727,2013-09-14 02:37:00,
2013-09-13 20:42:00,53.5,50.3,30.13,NNW,344,0.0,0.0,89,0.00,,,0.88,0,LWC V2.00 B727,2013-09-14 02:42:00,
2013-09-13 20:47:00,53.3,50.1,30.13,NNW,344,0.0,0.0,89,0.00,,,0.88,0,LWC V2.00 B727,2013-09-14 02:47:00,
2013-09-13 20:52:00,53.2,50.0,30.13,NNW,344,0.0,0.0,89,0.00,,,0.88,0,LWC V2.00 B727,2013-09-14 02:52:00,
2013-09-13 20:57:00,53.1,49.9,30.13,NNW,344,0.0,1.0,89,0.00,,,0.88,0,LWC V2.00 B727,2013-09-14 02:57:00,
2013-09-13 21:02:00,52.8,49.6,30.13,NNW,344,0.0,1.0,89,0.00,,,0.88,0,LWC V2.00 B727,2013-09-14 03:02:00,
2013-09-13 21:07:00,52.6,49.5,30.14,NNW,344,0.0,1.0,89,0.00,,,0.88,0,LWC V2.00 B727,2013-09-14 03:07:00,
2013-09-13 21:12:00,52.4,49.3,30.14,NNW,344,0.0,0.0,89,0.00,,,0.88,0,LWC V2.00 B727,2013-09-14 03:12:00,
2013-09-13 21:17:00,52.3,49.2,30.14,NNW,344,0.0,0.0,89,0.00,,,0.88,0,LWC V2.00 B727,2013-09-14 03:17:00,
2013-09-13 21:22:00,52.1,49.0,30.14,NNW,344,0.0,0.0,89,0.00,,,0.88,0,LWC V2.00 B727,2013-09-14 03:22:00,
2013-09-13 21:27:00,51.8,48.7,30.15,NNW,344,0.0,1.0,89,0.00,,,0.88,0,LWC V2.00 B727,2013-09-14 03:27:00,
2013-09-13 21:32:00,51.7,48.6,30.15,NNW,344,0.0,0.0,89,0.00,,,0.88,0,LWC V2.00 B727,2013-09-14 03:32:00,
2013-09-13 21:37:00,51.5,48.7,30.15,NNW,344,0.0,1.0,90,0.00,,,0.88,0,LWC V2.00 B727,2013-09-14 03:37:00,
2013-09-13 21:42:00,51.4,48.6,30.15,NNW,344,0.0,0.0,90,0.00,,,0.88,0,LWC V2.00 B727,2013-09-14 03:42:00,
2013-09-13 21:47:00,51.3,48.5,30.15,NNW,344,0.0,0.0,90,0.00,,,0.88,0,LWC V2.00 B727,2013-09-14 03:47:00,
2013-09-13 21:52:00,51.1,48.3,30.16,NNW,344,0.0,0.0,90,0.00,,,0.88,0,LWC V2.00 B727,2013-09-14 03:52:00,
2013-09-13 21:57:00,50.9,48.1,30.16,NNW,344,0.0,0.0,90,0.00,,,0.88,0,LWC V2.00 B727,2013-09-14 03:57:00,
2013-09-13 22:01:00,50.7,47.9,30.16,NNW,344,0.0,1.0,90,0.00,,,0.88,0,LWC V2.00 B727,2013-09-14 04:01:00,
2013-09-13 22:02:00,50.6,47.5,30.16,NNW,344,1.0,2.0,89,0.00,,,0.88,0,LWC V2.00 B727,2013-09-14 04:02:00,
2013-09-13 22:07:00,50.4,47.6,30.16,NNW,344,0.0,0.0,90,0.00,,,0.88,0,LWC V2.00 B727,2013-09-14 04:07:00,
2013-09-13 22:12:00,50.3,47.5,30.16,NNW,344,0.0,0.0,90,0.00,,,0.88,0,LWC V2.00 B727,2013-09-14 04:12:00,
2013-09-13 22:17:00,50.1,47.3,30.17,SE,124,3.0,3.0,90,0.00,,,0.88,0,LWC V2.00 B727,2013-09-14 04:17:00,
2013-09-13 22:22:00,50.1,47.3,30.17,SE,130,1.0,2.0,90,0.00,,,0.88,0,LWC V2.00 B727,2013-09-14 04:22:00,
2013-09-13 22:27:00,50.1,47.6,30.17,SE,130,1.0,2.0,91,0.00,,,0.88,0,LWC V2.00 B727,2013-09-14 04:27:00,
2013-09-13 22:32:00,50.0,47.5,30.17,SE,130,0.0,1.0,91,0.00,,,0.88,0,LWC V2.00 B727,2013-09-14 04:32:00,
2013-09-13 22:37:00,49.9,47.4,30.17,SE,130,0.0,3.0,91,0.00,,,0.88,0,LWC V2.00 B727,2013-09-14 04:37:00,
2013-09-13 22:42:00,49.8,47.3,30.17,SE,130,0.0,0.0,91,0.00,,,0.88,0,LWC V2.00 B727,2013-09-14 04:42:00,
2013-09-13 22:47:00,49.6,47.1,30.18,SE,130,0.0,1.0,91,0.00,,,0.88,0,LWC V2.00 B727,2013-09-14 04:47:00,
2013-09-13 22:52:00,49.4,46.9,30.18,SE,133,3.0,3.0,91,0.00,,,0.88,0,LWC V2.00 B727,2013-09-14 04:52:00,
2013-09-13 22:57:00,49.2,46.7,30.18,SE,134,0.0,0.0,91,0.00,,,0.88,0,LWC V2.00 B727,2013-09-14 04:57:00,
2013-09-13 23:02:00,49.1,46.6,30.18,SE,134,1.0,3.0,91,0.00,,,0.88,0,LWC V2.00 B727,2013-09-14 05:02:00,
2013-09-13 23:07:00,49.0,46.5,30.18,SE,133,0.0,3.0,91,0.00,,,0.88,0,LWC V2.00 B727,2013-09-14 05:07:00,
2013-09-13 23:12:00,48.9,46.4,30.18,SE,134,1.0,1.0,91,0.00,,,0.88,0,LWC V2.00 B727,2013-09-14 05:12:00,
2013-09-13 23:17:00,48.9,46.4,30.18,SE,134,1.0,1.0,91,0.00,,,0.88,0,LWC V2.00 B727,2013-09-14 05:17:00,
2013-09-13 23:20:00,48.9,46.4,30.18,SE,133,0.0,5.0,91,0.00,,,0.00,46,LWC V2.00 B727,2013-09-14 05:20:00,
2013-09-13 23:22:00,48.9,46.4,30.18,SE,134,1.0,1.0,91,0.00,,,0.88,0,LWC V2.00 B727,2013-09-14 05:22:00,
2013-09-13 23:30:00,48.9,46.4,30.18,SE,133,0.0,5.0,50,0.00,,,0.00,46,LWC V2.00 B727,2013-09-14 05:30:00,
2013-09-13 23:40:00,48.9,46.4,30.18,SE,133,0.0,1.0,50,0.00,,,0.00,46,LWC V2.00 B727,2013-09-14 05:40:00,
2013-09-13 23:50:00,48.9,46.4,30.18,SE,133,0.0,0.0,50,0.00,,,0.00,46,LWC V2.00 B727,2013-09-14 05:50:00,